Charlottetown, Prince Edward Island

3:21 AM ADT on June 27, 2017 (GMT -0300)
Charlottetown

Weather History for CYYG - October, 2014

Change the Weather History Date:

Wednesday, October 8, 2014

  Actual Average Record
Temperature  
Mean Temperature 59 °F -  
Max Temperature 65 °F 51 °F 72 °F (2016)
Min Temperature 53 °F 37 °F 33 °F (1999)
Degree Days  
Heating Degree Days 6    
Growing Degree Days 9 (Base 50)    
Moisture  
Dew Point 56 °F    
Average Humidity 88    
Maximum Humidity 94    
Minimum Humidity 69    
Precipitation  
Precipitation 0.28 in 0.15 in - ()
Sea Level Pressure  
Sea Level Pressure 29.95 in    
Wind  
Wind Speed 12 mph ()    
Max Wind Speed 22 mph    
Max Gust Speed 29 mph    
Visibility 13.9 miles    
Events Rain    
Averages and records for this station are not official NWS values.
T = Trace of Precipitation, MM = Missing Value Source: Averaged Metar Reports

Daily Weather History Graph

Daily Weather History Graph

Search for Another Location

Airport or City:

Trip Planner

Search our weather history database for the weather conditions in past years. The results will help you decide how hot, cold, wet, or windy it might be!

Date:

Astronomy

Oct. 08, 2014 Rise Set
Actual Time 7:20 AM ADT 6:39 PM ADT
Civil Twilight 6:50 AM ADT 7:09 PM ADT
Nautical Twilight 6:15 AM ADT 7:43 PM ADT
Astronomical Twilight 5:40 AM ADT 8:18 PM ADT
Moon 6:48 PM ADT (10/8) 7:22 AM ADT (10/8)
Length of Visible Light 12h 19m
Length of Day
11h 18m
Full, 100% of the Moon is Illuminated
Oct 8
Full
Oct 15
Last Quarter
Oct 23
New
Oct 30
First Quarter
Nov 6
Full

Hourly Weather History & Observations

Time (ADT) Temp. Dew Point Humidity Pressure Visibility Wind Dir Wind Speed Gust Speed Precip Events Conditions
12:00 AM 55.4 °F 50.0 °F 82% 30.21 in 15.0 mi SSE 11.5 mph - N/A   Overcast
1:00 AM 55.4 °F 51.8 °F 88% 30.20 in 15.0 mi SSE 10.4 mph - N/A   Overcast
2:00 AM 53.6 °F 51.8 °F 94% 30.19 in 15.0 mi SSE 9.2 mph - N/A   Overcast
3:00 AM 54 °F 52 °F 90% 30.18 in 15 mi SSE 11.5 mph - -   Overcast
3:00 AM 53.6 °F 51.8 °F 94% 30.18 in 15.0 mi SSE 10.4 mph - N/A   Overcast
4:00 AM 53.6 °F 51.8 °F 94% 30.16 in 15.0 mi SSE 8.1 mph - N/A   Overcast
5:00 AM 55.4 °F 53.6 °F 94% 30.14 in 15.0 mi SSE 9.2 mph - N/A   Overcast
5:25 AM 55.4 °F 53.6 °F 94% 30.14 in 15.0 mi SSE 8.1 mph - N/A   Overcast
6:00 AM 55.4 °F 53.6 °F 94% 30.13 in 10.0 mi SSE 10.4 mph - N/A   Overcast
7:00 AM 55.4 °F 53.6 °F 94% 30.12 in 10.0 mi SSE 10.4 mph - N/A   Overcast
8:00 AM 55.4 °F 53.6 °F 94% 30.09 in 15.0 mi SE 10.4 mph - N/A   Overcast
9:00 AM 57 °F 55 °F 89% 30.09 in 10 mi SE 10.4 mph - -   Scattered Clouds
9:00 AM 57.2 °F 55.4 °F 94% 30.09 in 10.0 mi SE 11.5 mph - N/A   Mostly Cloudy
10:00 AM 59.0 °F 55.4 °F 88% 30.07 in 15.0 mi SSE 18.4 mph 24.2 mph N/A   Mostly Cloudy
11:00 AM 60.8 °F 57.2 °F 88% 30.04 in 15.0 mi SE 13.8 mph - N/A   Mostly Cloudy
12:00 PM 62.6 °F 53.6 °F 72% 30.01 in 15.0 mi SSE 19.6 mph 26.5 mph N/A   Mostly Cloudy
1:00 PM 62.6 °F 55.4 °F 77% 29.99 in 15.0 mi SSE 17.3 mph 25.3 mph N/A   Mostly Cloudy
2:00 PM 64.4 °F 57.2 °F 77% 29.93 in 15.0 mi SE 18.4 mph 25.3 mph N/A   Overcast
3:00 PM 65 °F 57 °F 69% 29.90 in 15 mi SE 18.4 mph - -   Overcast
3:00 PM 64.4 °F 57.2 °F 77% 29.90 in 15.0 mi SE 21.9 mph 27.6 mph N/A   Overcast
4:00 PM 64.4 °F 57.2 °F 77% 29.86 in 15.0 mi SE 17.3 mph 24.2 mph N/A   Overcast
4:35 PM 64.4 °F 57.2 °F 77% 29.85 in 15.0 mi SE 13.8 mph 25.3 mph N/A Rain Light Rain Showers
5:00 PM 62.6 °F 57.2 °F 82% 29.84 in 15.0 mi SE 15.0 mph 24.2 mph N/A Rain Light Rain Showers
6:00 PM 62.6 °F 59.0 °F 88% 29.80 in 15.0 mi SSE 19.6 mph 27.6 mph N/A Rain Light Rain Showers
6:29 PM 62.6 °F 59.0 °F 88% 29.79 in 12.0 mi SSE 21.9 mph 28.8 mph N/A Rain Light Rain Showers
7:00 PM 60.8 °F 59.0 °F 94% 29.78 in 15.0 mi SSE 18.4 mph 26.5 mph N/A   Mostly Cloudy
8:00 PM 60.8 °F 59.0 °F 94% 29.75 in 15.0 mi SE 19.6 mph 28.8 mph N/A   Overcast
9:00 PM 61 °F 60 °F 94% 29.74 in 15 mi SSE 16.1 mph - -   Partly Cloudy
9:00 PM 60.8 °F 59.0 °F 94% 29.74 in 15.0 mi SSE 15.0 mph 21.9 mph N/A   Overcast
9:21 PM 60.8 °F 59.0 °F 94% 29.73 in 12.0 mi SE 16.1 mph 24.2 mph N/A Rain Light Rain Showers
10:00 PM 62.6 °F 60.8 °F 94% 29.69 in 12.0 mi SE 15.0 mph 24.2 mph N/A Rain Light Rain Showers
11:00 PM 62.6 °F 60.8 °F 94% 29.69 in 15.0 mi SSE 17.3 mph 24.2 mph N/A Rain Light Rain Showers
11:15 PM 62.6 °F 60.8 °F 94% 29.69 in 15.0 mi SSE 16.1 mph - N/A Rain Light Rain Showers
11:49 PM 62.6 °F 60.8 °F 94% 29.71 in 8.0 mi SSW 13.8 mph 19.6 mph N/A Rain Heavy Rain Showers